Location: ?????????
(54.7630°N, 39.4991°E)
Time: 21:58:36
(UTC+00:00)

ALOS 2 - Pass Details

Date: 14 April 2026
Orbit: 630 x 632 km, 97.9° (Epoch: 13 May)

Event Time Altitude Azimuth Distance (km) Brightness Sun altitude
Exits shadow 20:16:12 61° 76° (ENE) 721 2.7 -24.1°
Maximum altitude 20:16:17 62° 70° (ENE) 720 2.8 -24.1°
Drops below altitude 10° 20:20:38 10° 350° (N) 2,029 6.3 -24.3°
Sets 20:22:52 0° 348° (NNW) 2,941 7.4 -24.4°
